Вернуться в каталог

FENGYUN 1C DEB *

LostSSO
NORAD 47039·DEBRIS·🇨🇳 China

Запущен May 10, 1999 с Taiyuan Satellite Launch Center

Loading…

Ближайшие Пролёты (ближайшие 24 часа)

TLE

УстаревшееSource: Space-Track

Эпоха: Oct 17, 2022, 06:33 UTC

1 47039U 99025FBR 22290.27305854  .00006956  00000-0  32251-2 0  9998
2 47039  98.3651 291.8071 0113726 334.2825  90.7892 14.17647579438250

Отслеживайте FENGYUN 1C DEB * в реальном времени с AllMySat

Download on the App Store